"Pseudo-MPEC" for ZTF10DI

Created 2026 Apr 15 2:35:06 UT using Find_Orb

Click here for an explanation of pseudo-MPECs

 
 Astrometry: 
     ZTF10DI*0C2026 04 08.15741908 17 16.383-00 10 05.55   ~48E5 16.01RUNEOCPI41
     ZTF10DI 0C2026 04 08.15776608 17 18.800-00 09 59.10   ~48E5 16.01RUNEOCPI41
     ZTF10DI 0C2026 04 08.19517908 21 52.310+00 00 08.32   ~48E5 16.72gUNEOCPI41
     ZTF10DI 0C2026 04 08.19552608 21 54.927+00 00 13.88   ~48E5 16.72gUNEOCPI41

Station data:
(I41) Palomar Mountain--ZTF  (N33.357336 W116.859780)  US/California.
   Observers B. T. Bolin, Z. T. F. Collaboration. Measurers B. T. Bolin,
   Z.-Y. Lin, F. J. Masci. 1.2-m f/2.4 Schmidt.

Orbital elements:  ZTF10DI
   Perihelion 2026 Feb 14.710324 +/- 20.4 TT = 17:02:52.0 (JD 2461086.210324)
Epoch 2026 Apr  8.0 TT = JDT 2461138.5   Earth MOID: 0.0069   Ve: 0.0766
M  46.746061083 +/- 40              Me: 0.0489   Ma: 0.0743      AutoNEOCP
n   0.893982617 +/- 0.667           Peri.  228.399761 +/- 80
a   1.067210278 +/- 0.531           Node   200.149965 +/- 70
e   0.67064961 +/- 0.233            Incl.    6.392578 +/- 4.9
P   1.102/402.685d         H 22.51  G  0.15   U 12.5  SR
q 0.351486120 +/- 0.326    Q 1.782934437 +/- 66.1         (J2000 ecliptic)
From 4 observations 2026 Apr. 8 (54.9 min); mean residual 0".74
Residuals in arcseconds: 
260408 I41  1.2+  .36-    260408 I41  .86-  .00     
260408 I41  1.2-  .37+    260408 I41  .86+  .00     

Ephemerides (geocentric):
Date (UTC) HH   RA             Dec           delta  r     elong  mag " sig PA
---- --------  ------------   ------------  ------ ------ -----  --- --------
2026 04 15 03  11 25 28.941   +05 52 13.13  .09971 1.0863 144.9 19.0  36d  90
2026 04 15 04  11 25 40.774   +05 52 26.49  .10024 1.0867 144.9 19.0  36d  90
2026 04 15 05  11 25 52.492   +05 52 39.65  .10076 1.0872 144.9 19.1  36d  90
2026 04 15 06  11 26 04.096   +05 52 52.59  .10128 1.0876 144.9 19.1  36d  90
2026 04 15 07  11 26 15.589   +05 53 05.33  .10181 1.0881 144.9 19.1  36d  90
2026 04 15 08  11 26 26.972   +05 53 17.87  .10233 1.0886 144.9 19.1  36d  90
2026 04 15 09  11 26 38.248   +05 53 30.21  .10286 1.0890 144.9 19.1  36d  90
2026 04 15 10  11 26 49.417   +05 53 42.35  .10338 1.0895 144.9 19.1  36d  90
2026 04 15 11  11 27 00.481   +05 53 54.30  .10390 1.0899 144.9 19.1  36d  90
2026 04 15 12  11 27 11.442   +05 54 06.06  .10443 1.0904 144.9 19.1  36d  90
2026 04 15 13  11 27 22.301   +05 54 17.63  .10495 1.0908 144.9 19.2  36d  90
2026 04 15 14  11 27 33.060   +05 54 29.02  .10548 1.0913 144.9 19.2  36d  90
2026 04 15 15  11 27 43.721   +05 54 40.22  .10600 1.0917 144.9 19.2  36d  90
2026 04 15 16  11 27 54.284   +05 54 51.24  .10652 1.0922 144.9 19.2  36d  90
2026 04 15 17  11 28 04.751   +05 55 02.09  .10705 1.0927 144.9 19.2  36d  90
2026 04 15 18  11 28 15.125   +05 55 12.76  .10757 1.0931 144.9 19.2  36d  90
2026 04 15 19  11 28 25.405   +05 55 23.26  .10810 1.0936 144.9 19.2  36d  90
2026 04 15 20  11 28 35.594   +05 55 33.58  .10862 1.0940 144.9 19.2  36d  90
2026 04 15 21  11 28 45.692   +05 55 43.74  .10915 1.0945 144.9 19.2  36d  90
2026 04 15 22  11 28 55.702   +05 55 53.73  .10967 1.0949 144.9 19.3  36d  90
2026 04 15 23  11 29 05.624   +05 56 03.56  .11020 1.0954 144.9 19.3  36d  90
2026 04 16 00  11 29 15.459   +05 56 13.23  .11073 1.0958 144.9 19.3  36d  90
2026 04 16 01  11 29 25.209   +05 56 22.73  .11125 1.0963 144.9 19.3  36d  90
2026 04 16 02  11 29 34.875   +05 56 32.08  .11178 1.0967 144.9 19.3  36d  90
2026 04 16 03  11 29 44.459   +05 56 41.28  .11230 1.0972 144.9 19.3  36d  90
2026 04 16 04  11 29 53.961   +05 56 50.31  .11283 1.0976 144.8 19.3  36d  90
2026 04 16 05  11 30 03.382   +05 56 59.20  .11335 1.0981 144.8 19.3  36d  90
2026 04 16 06  11 30 12.725   +05 57 07.94  .11388 1.0985 144.8 19.3  36d  90
2026 04 16 07  11 30 21.988   +05 57 16.53  .11441 1.0990 144.8 19.4  36d  90
2026 04 16 08  11 30 31.175   +05 57 24.97  .11493 1.0994 144.8 19.4  36d  90
2026 04 16 09  11 30 40.286   +05 57 33.27  .11546 1.0999 144.8 19.4  36d  90
2026 04 16 10  11 30 49.322   +05 57 41.43  .11599 1.1003 144.8 19.4  36d  90
2026 04 16 11  11 30 58.283   +05 57 49.44  .11651 1.1008 144.8 19.4  36d  90
2026 04 16 12  11 31 07.172   +05 57 57.32  .11704 1.1012 144.8 19.4  36d  90
2026 04 16 13  11 31 15.989   +05 58 05.05  .11757 1.1017 144.8 19.4  36d  90
2026 04 16 14  11 31 24.734   +05 58 12.66  .11809 1.1021 144.8 19.4  36d  90
2026 04 16 15  11 31 33.410   +05 58 20.12  .11862 1.1026 144.8 19.4  36d  90
2026 04 16 16  11 31 42.017   +05 58 27.46  .11915 1.1030 144.7 19.4  36d  90
2026 04 16 17  11 31 50.555   +05 58 34.66  .11968 1.1035 144.7 19.5  36d  90
2026 04 16 18  11 31 59.026   +05 58 41.73  .12020 1.1039 144.7 19.5  36d  90
2026 04 16 19  11 32 07.431   +05 58 48.68  .12073 1.1044 144.7 19.5  36d  90
2026 04 16 20  11 32 15.770   +05 58 55.50  .12126 1.1048 144.7 19.5  36d  90
2026 04 16 21  11 32 24.045   +05 59 02.19  .12179 1.1053 144.7 19.5  36d  90
2026 04 16 22  11 32 32.256   +05 59 08.76  .12231 1.1057 144.7 19.5  36d  90
2026 04 16 23  11 32 40.404   +05 59 15.21  .12284 1.1062 144.7 19.5  36d  90
2026 04 17 00  11 32 48.489   +05 59 21.53  .12337 1.1066 144.7 19.5  36d  90
2026 04 17 01  11 32 56.514   +05 59 27.74  .12390 1.1071 144.6 19.5  36d  90
2026 04 17 02  11 33 04.478   +05 59 33.83  .12443 1.1075 144.6 19.5  36d  90